Regional Weather Roundup
Issued by NWS

Home | Current Version | Previous Version | Text Only | Print | Product List | Glossary On
Versions: 1 2 3 4 5 6 7 8 9 10 11 12 13 14 15 16 17 18 19 20 21 22 23 24 25 26 27 28 29 30 31 32 33 34 35 36 37 38 39 40 41 42 43 44 45 46 47 48 49 50
000
ASUS43 KDTX 232301
RWRMI
MICHIGAN HOURLY REGIONAL WEATHER ROUNDUP
NATIONAL WEATHER SERVICE DETROIT/PONTIAC MI
600 PM EST TUE JAN 23 2018

NOTE: "FAIR" INDICATES FEW OR NO CLOUDS BELOW 12,000 FEET WITH NO
SIGNIFICANT WEATHER AND/OR OBSTRUCTION TO VISIBILITY.

MIZ047>049-052>055-059>063-066>070-074>076-081>083-240000-
SOUTHEAST LOWER MICHIGAN

CITY           SKY/WX    TMP DP  RH WIND       PRES   REMARKS
ADRIAN         CLOUDY    31  25  78 NW21G32   29.85R WCI  18
ANN ARBOR      CLOUDY    31  25  78 W12       29.81R WCI  22
BAD AXE        CLOUDY    25  21  86 NW16      29.76R WCI  12
CARO           CLOUDY    27  22  83 NW15      29.79R WCI  15
DETROIT CITY   CLOUDY    32  27  81 W15G24    29.79R WCI  22
DETROIT        CLOUDY    32  25  75 W18G29    29.81R WCI  20
FLINT          CLOUDY    29  24  82 NW20      29.80R WCI  16
GROSSE ILE     CLOUDY    33  26  76 NW15G23   29.80R WCI  23
HILLSDALE      CLOUDY    30  27  86 W16G25    29.84R WCI  19
HOWELL         CLOUDY    30  27  89 W14       29.81R WCI  19

CITY           SKY/WX    TMP DP  RH WIND       PRES   REMARKS
JACKSON        CLOUDY    30  24  78 W16G24    29.84R WCI  19
LAMBERTVILLE   CLOUDY    33  26  78 W14G23    29.85R WCI  23
LANSING        CLOUDY    29  24  82 W16G25    29.85R WCI  17
LAPEER         MIX PCPN  29  26  87 NW15G28   29.78R WCI  18
MONROE         CLOUDY    33  25  73 W16G23    29.82R WCI  23
MT. CLEMENS    FLURRIES  32  31  93 W14       29.76R WCI  22
PONTIAC        CLOUDY    30  26  85 NW15      29.77R WCI  19
PORT HOPE        N/A     24  17  74 NW20G32   29.74R WCI  10
PORT HURON     CLOUDY    30  27  86 NW9       29.75R WCI  22
TRI CITIES     CLOUDY    27  22  81 NW17G28   29.83R WCI  14
MIDLAND        CLOUDY    26  20  78 NW13G21   29.83R WCI  15
TROY           CLOUDY    33  29  86 W14G23    29.80R WCI  23
SAGINAW HB     CLOUDY    28  23  80 NW20      29.82R WCI  15
$$
MIZ043>046-050>051-056>058-064>065-071>073-077>080-240000-
SOUTHWEST LOWER MICHIGAN

CITY           SKY/WX    TMP DP  RH WIND       PRES   REMARKS
BATTLE CREEK   CLOUDY    30  26  85 NW16G26   29.88R WCI  19
BENTON HARBOR  CLOUDY    31  24  75 NW14G26   29.97R WCI  21
BIG RAPIDS     CLOUDY    26  20  80 NW8G16    29.86R WCI  17
COLDWATER      CLOUDY    30  28  93 W15G25    29.89R WCI  19
FREMONT        CLOUDY    29  20  69 N13       29.91R WCI  19
HOLLAND        CLOUDY    31  23  72 N14G32    29.93R WCI  21
GRAND RAPIDS   CLOUDY    30  23  75 NW17      29.88R WCI  18
IONIA          CLOUDY    29  24  81 NW18      29.86R WCI  17
KALAMAZOO      CLOUDY    30  25  81 W16G29    29.90R WCI  19
LUDINGTON      CLOUDY    28  24  85 N17G30    29.94R WCI  16
MARSHALL       CLOUDY    30  26  85 W15G22    29.86R WCI  19
MOUNT PLEASANT CLOUDY    27  20  76 NW12G17   29.84R WCI  16
MUSKEGON       CLOUDY    31  22  69 N20G28    29.94R WCI  19
SOUTH HAVEN    CLOUDY    32  26  79 NW12G20   29.95R WCI  23
$$
MIZ016>042-240000-
NORTHERN LOWER MICHIGAN

CITY           SKY/WX    TMP DP  RH WIND       PRES   REMARKS
ALPENA         CLOUDY    21  16  81 NW12G20   29.79R WCI   9
BEAVER ISLAND  FAIR      23  17  77 NW7       29.92R WCI  14
BELLAIRE       CLOUDY    25  21  85 N5G18     29.90R WCI  19
CADILLAC       CLOUDY    24  20  84 NW12G22   29.84R WCI  13
CHARLEVOIX     CLOUDY    25  20  83 NW6       29.92R WCI  18
FRANKFORT      CLOUDY    28  22  78 N10G18    29.95R WCI  19
GAYLORD        CLOUDY    20  19  96 VRB6G17   29.80R WCI  12
GRAYLING       CLOUDY    22  18  83 NW15G21   29.82R WCI   9
HARBOR SPRINGS CLOUDY    22  19  88 NW7       29.85R WCI  13
HOUGHTON LAKE  CLOUDY    22  17  81 NW13G21   29.81R WCI  10
MANISTEE       CLOUDY    27  23  85 N14G22    29.95R WCI  16
OSCODA         FLURRIES  20  14  77 NW15G23   29.78R WCI   6
PELLSTON       CLOUDY    22  17  81 NW13      29.87R WCI  10
ROGERS CITY    CLOUDY    22  18  83 NW8       29.81R WCI  13
TRAVERSE CITY  FLURRIES  28  20  71 N15G22    29.89R WCI  16
$$
MIZ007>008-015-240000-
EASTERN UPPER MICHIGAN

CITY           SKY/WX    TMP DP  RH WIND       PRES   REMARKS
KINROSS        FLURRIES  19  15  84 NW13      29.85R WCI   6
MACKINAC ISLAN CLOUDY    19  16  86 N16G25    29.85R WCI   5
NEWBERRY       FLURRIES  18  16  93 NW13G22   29.90R WCI   4
S. S. MARIE    CLOUDY    21  12  68 NW9       29.85R WCI  11
MUNISING         N/A     21  16  81 N17G31    29.98R WCI   7
$$
MIZ004>006-011>014-085-240000-
CENTRAL UPPER MICHIGAN

CITY           SKY/WX    TMP DP  RH WIND       PRES   REMARKS
ESCANABA       FAIR      21  13  71 NW10      30.00R WCI  10
MENOMINEE      CLOUDY    24  17  74 N8        30.02R WCI  15
SAWYER-GWINN   LGT SNOW  16  12  86 N14G25    29.98R WCI   1
$$
MIZ001>003-009>011-084-240000-
WESTERN UPPER MICHIGAN

CITY           SKY/WX    TMP DP  RH WIND       PRES   REMARKS
IRON MOUNTAIN  CLOUDY    20  14  77 NW13      29.99R WCI   7
HOUGHTON       FLURRIES  14   8  77 N7        30.05R WCI   4
COPPER HARBOR    N/A     19  12  74 NE17G28   30.06R WCI   4
IRONWOOD       MOCLDY    16  12  84 N3        30.07R
$$

ABBREVIATIONS USED IN REMARKS
   TC - TEMPERATURE IN CELSIUS
  WCI - WIND CHILL INDEX
   HX - HEAT INDEX
  VSB - VISIBILITY




USA.gov is the U.S. government's official web portal to all federal, state and local government web resources and services.